Location: Cazarilh
(42.9578°N, 0.5819°E)
Time: 09:39:52
(UTC+00:00)

Cosmos 2221 Rocket - Pass Details

Date: 11 December 2019
Orbit: 621 x 647 km, 82.5° (Epoch: 27 January)

Event Time Altitude Azimuth Distance (km) Brightness Sun altitude
Exits shadow 06:05:17 - 344° (NNW) 2,507 6.3 -12.9°
Reaches altitude 10° 06:06:34 10° 341° (NNW) 1,999 5.8 -12.7°
Maximum altitude 06:10:49 48° 267° (W) 812 3.8 -11.9°
Drops below altitude 10° 06:15:03 10° 193° (SSW) 1,987 6.3 -11.2°
Sets 06:17:19 0° 187° (S) 2,891 7.2 -10.8°
